Location: Sungai Apap
(2.6167°N, 113.3833°E)
Time: 16:30:35
(UTC+00:00)

Cosmos 1939 Rocket - Pass Details

Date: 25 May 2024
Orbit: 515 x 557 km, 97.4° (Epoch: 12 June)

Event Time Altitude Azimuth Distance (km) Brightness Sun altitude
Rises 21:16:06 0° 352° (N) 2,726 6.6 -14.7°
Reaches altitude 10° 21:18:27 10° 340° (NNW) 1,833 5.5 -14.2°
Maximum altitude 21:21:49 27° 282° (WNW) 1,093 3.9 -13.4°
Enters shadow 21:23:27 20° 244° (WSW) 1,305 4.1 -13.0°
